Location: Lewisville
(33.0462°N, 96.9942°W)
Time: 09:19:14
(UTC-06:00)

Envisat - Pass Details

Date: 01 December 2019
Orbit: 764 x 766 km, 98.1° (Epoch: 26 January)

Event Time Altitude Azimuth Distance (km) Brightness Sun altitude
Rises 18:46:56 0° 175° (S) 3,215 6.4 -17.7°
Reaches altitude 10° 18:49:15 10° 179° (S) 2,293 5.6 -18.2°
Maximum altitude 18:54:15 61° 259° (W) 863 3.5 -19.2°
Drops below altitude 10° 18:59:17 10° 340° (NNW) 2,307 5.5 -20.2°
Sets 19:01:38 0° 344° (NNW) 3,237 6.3 -20.7°
